Change the Weather History Date:

Friday, July 4, 2014

  Actual Average Record
Temperature  
Mean Temperature 82 °F -  
Max Temperature 97 °F 90 °F 101 °F (1937)
Min Temperature 68 °F 56 °F 43 °F (1943)
Cooling Degree Days 17    
Growing Degree Days 32 (Base 50)    
Moisture  
Dew Point 40 °F    
Average Humidity 25    
Maximum Humidity 43    
Minimum Humidity 9    
Precipitation  
Precipitation 0.00 in - - ()
Sea Level Pressure  
Sea Level Pressure 29.86 in    
Wind  
Wind Speed 8 mph (SSE)    
Max Wind Speed 16 mph    
Max Gust Speed 24 mph    
Visibility 10 miles    
Events      
Averages and records for this station are not official NWS values.
T = Trace of Precipitation, MM = Missing Value Source: NWS Daily Summary

Daily Weather History Graph

Daily Weather History Graph

Search for Another Location

Airport or City:

Trip Planner

Search our weather history database for the weather conditions in past years. The results will help you decide how hot, cold, wet, or windy it might be!

Date:

Astronomy

Jul. 04, 2014 Rise Set
Actual Time 6:00 AM MDT 9:04 PM MDT
Civil Twilight 5:27 AM MDT 9:37 PM MDT
Nautical Twilight 4:44 AM MDT 10:20 PM MDT
Astronomical Twilight 3:54 AM MDT 11:10 PM MDT
Moon 1:04 PM MDT (7/4) 12:24 AM MDT (7/4)
Length of Visible Light 16h 10m
Length of Day
15h 03m
Waxing Crescent, 43% of the Moon is Illuminated
Jul 4
Waxing Crescent
Jul 5
First Quarter
Jul 12
Full
Jul 18
Last Quarter
Jul 26
New

Hourly Weather History & Observations

Time (MDT) Temp. Dew Point Humidity Pressure Visibility Wind Dir Wind Speed Gust Speed Precip Events Conditions
12:53 AM 79.0 °F 39.9 °F 25% 29.84 in 10.0 mi East 4.6 mph - N/A   Clear
1:53 AM 77.0 °F 41.0 °F 28% 29.83 in 10.0 mi East 11.5 mph - N/A   Clear
2:53 AM 77.0 °F 41.0 °F 28% 29.83 in 10.0 mi ENE 9.2 mph - N/A   Clear
3:53 AM 73.0 °F 43.0 °F 34% 29.85 in 10.0 mi SSE 10.4 mph - N/A   Clear
4:53 AM 69.1 °F 44.1 °F 40% 29.86 in 10.0 mi South 6.9 mph - N/A   Clear
5:53 AM 69.1 °F 44.1 °F 40% 29.88 in 10.0 mi South 8.1 mph - N/A   Clear
6:53 AM 68.0 °F 45.0 °F 43% 29.90 in 10.0 mi South 9.2 mph - N/A   Clear
7:53 AM 71.1 °F 46.0 °F 41% 29.91 in 10.0 mi South 8.1 mph - N/A   Clear
8:53 AM 73.0 °F 46.9 °F 39% 29.93 in 10.0 mi SSE 8.1 mph - N/A   Clear
9:18 AM 73.9 °F 48.0 °F 40% 30.10 in 10.0 mi SSE 9.2 mph - N/A   Partly Cloudy
9:53 AM 81.0 °F 46.9 °F 30% 29.91 in 10.0 mi South 6.9 mph - N/A   Clear
10:53 AM 86.0 °F 45.0 °F 24% 29.91 in 10.0 mi SSE 6.9 mph 17.3 mph N/A   Clear
11:53 AM 91.0 °F 45.0 °F 20% 29.89 in 10.0 mi South 16.1 mph 24.2 mph N/A   Clear
12:53 PM 91.9 °F 39.9 °F 16% 29.88 in 10.0 mi South 8.1 mph 18.4 mph N/A   Clear
1:53 PM 93.0 °F 39.9 °F 16% 29.87 in 10.0 mi SW 8.1 mph - N/A   Clear
2:53 PM 95.0 °F 34.0 °F 12% 29.85 in 10.0 mi WSW 5.8 mph - N/A   Clear
3:53 PM 95.0 °F 28.0 °F 9% 29.83 in 10.0 mi WSW 9.2 mph - N/A   Clear
4:53 PM 95.0 °F 28.0 °F 9% 29.82 in 10.0 mi Variable 3.5 mph - N/A   Clear
5:53 PM 95.0 °F 30.0 °F 10% 29.81 in 10.0 mi SSE 6.9 mph - N/A   Clear
6:53 PM 96.1 °F 30.0 °F 10% 29.80 in 10.0 mi Calm Calm - N/A   Clear
7:53 PM 93.9 °F 33.1 °F 12% 29.79 in 10.0 mi East 3.5 mph - N/A   Clear
8:53 PM 87.1 °F 44.1 °F 22% 29.80 in 10.0 mi SSE 8.1 mph - N/A   Clear
9:53 PM 81.0 °F 43.0 °F 26% 29.80 in 10.0 mi South 10.4 mph - N/A   Clear
10:53 PM 80.1 °F 42.1 °F 26% 29.81 in 10.0 mi South 11.5 mph - N/A   Clear
11:53 PM 80.1 °F 41.0 °F 25% 29.80 in 10.0 mi SSE 8.1 mph - N/A   Clear